STARLINK-36516, 67455

Orbit data source: Space-Track

STARLINK-36516, 67455 is a payload satellite owned by SpaceX/Seattle (US) in LEO that was launched on Wed, 14 Jan 2026 UTC via an FALCON 9 launch vehicle from the Air Force Eastern Test Range (AFETR). Payload-class satellites include a variety of spacecraft equipped with specific instruments for various scientific and technological missions. These include communications satellites like Starlink; space stations such as the ISS; scientific satellites like the Hubble; Earth observation satellites from companies like Planet Labs, Umbra, and HawkEye 360; GPS; miniature CubeSats for education and research; and military/defense satellites.

Loading next visibility...
Identifier
67455, 2026-008L
Orbit
LEO
Country
Flag of USUS
Related business
Manufacturer
SpaceX/Seattle
Mission
Operational spacecraft
Bus & Motor
STARLINK V2MO, Unknown motor
Mass
575 kg wet, ~530 kg dry
Launch date (UTC)
2026-01-14 (2 months ago)
Launch vehicle
FALCON 9
Launch site
Air Force Eastern Test Range (AFETR)
Object type
Payload
Rocket body
Debris
Shape & HBR
Unknown shape, 17.7 m
Radar Cross Section
RCS unknown

Expand to show TLE details & history
Last TLE update: 22 hours ago

TLE from 22 hours ago
0 STARLINK-36516
1 67455U 26008L   26062.53764433  .00031805  00000-0  11595-2 0  9994
2 67455  42.9938 239.7665 0001100 178.0881 181.9975 15.27601190  8636
Epoch: 2026-03-03T12:54Z
TLE epoch observation values (Epoch: 2026-03-03T12:54:12.470Z)
Latitude
Longitude
-115.10073°
Altitude
483.515 km
Speed
7.625 km/s
True Right ascension
15h 59m 03s
True Declination
0° 00' 00"
Sunlit
Object was in daylight at epoch
Visualization orbit readout
Latitude
Unknown
Longitude
Unknown
Altitude
Unknown
Speed
Unknown
Apparent Right ascension
Unknown
Apparent Declination
Unknown
Sunlit
N/A
Visualization observer readout
Local Sidereal Time
14:13:48
Azimuth
Unknown
Elevation
Unknown
Doppler factor
Unknown
Orbital elements
Apogee altitude
485.687 km
Perigee altitude
484.177 km
Semi-major axis
6,863.069 km
Eccentricity
0.00011
Inclination
42.9938°
RAAN
239.7665°
Arg. of periapsis
178.0881°
True anomaly
181.99706°
Mean anomaly
181.9975°
Eccentric anomaly
181.99728°
Mean motion
3.81738 °/min
Orbital period
94.31 mins
BSTAR
0.0011595
Loading maneuver chart data...
Computing Atmospheric mass density...
Loading historical data...
Loading historical data...
Loading historical data...
Loading historical data...
Loading historical data...
Loading historical data...
Loading historical data...

Documentation

Showing up to 5 results
|